Overview Statistics Trail Chart Weather Telemetry Raw packets
 

This is the latest recevied weather packets stored in our database for station/object VE8SKI. If no packets are shown the sender has not sent any weather packets the latest 10 day(s).

<< 93 94 95 96 97 98 99 >>
Time Temp. Humidity Pressure Rain* Wind** Luminosity Snow
1777410610 4.44° C 62% 1016 hPa 0 mm 0.45 m/s, 260° - -
1777410310 3.33° C 63% 1015.9 hPa 0 mm 1.34 m/s, 222° - -
1777410011 3.89° C 62% 1015.9 hPa 0 mm 1.34 m/s, 305° - -
1777409711 3.89° C 63% 1016 hPa 0 mm 0.89 m/s, 232° - -
1777409409 4.44° C 62% 1016 hPa 0 mm 1.34 m/s, 262° - -
1777409115 3.89° C 63% 1016.1 hPa 0 mm 0.45 m/s, 211° - -
1777408810 3.89° C 62% 1016.2 hPa 0 mm 1.79 m/s, 359° - -
1777408511 3.89° C 61% 1016.3 hPa 0 mm 1.34 m/s, 0° - -
1777408211 4.44° C 62% 1016.2 hPa 0 mm 1.79 m/s, 274° - -
1777407912 4.44° C 62% 1016.3 hPa 0 mm 0.45 m/s, 160° - -
1777407609 4.44° C 62% 1016.4 hPa 0 mm 0 m/s - -
1777407310 5° C 59% 1016.4 hPa 0 mm 1.34 m/s, 200° - -
1777407010 5° C 59% 1016.6 hPa 0 mm 0 m/s - -
1777406711 5° C 61% 1016.7 hPa 0 mm 0 m/s - -
1777406412 3.89° C 61% 1016.8 hPa 0 mm 0 m/s - -
1777406112 3.89° C 62% 1016.8 hPa 0 mm 0 m/s - -
1777405810 4.44° C 61% 1016.9 hPa 0 mm 0.45 m/s, 240° - -
1777405511 3.89° C 63% 1016.9 hPa 0 mm 0 m/s - -
1777405211 2.78° C 65% 1017 hPa 0 mm 0 m/s - -
1777404912 2.78° C 65% 1017 hPa 0 mm 1.34 m/s, 316° - -
1777404612 2.22° C 66% 1017 hPa 0 mm 2.24 m/s, 248° - -
1777404313 2.22° C 66% 1017.1 hPa 0 mm 0 m/s - -
1777404011 1.67° C 67% 1017.1 hPa 0 mm 0.45 m/s, 222° - -
1777403711 1.67° C 68% 1017 hPa 0 mm 1.34 m/s, 269° - -
1777403412 1.67° C 67% 1017 hPa 0 mm 1.79 m/s, 239° - -

* Rain latest hour (hover to see other rain measurements)
** Current wind speed in m/s (hover to see current wind gust speed)